Time,TemperatureF,DewpointF,PressureIn,WindDirection,WindDirectionDegrees,WindSpeedMPH,WindSpeedGustMPH,Humidity,HourlyPrecipIn,Conditions,Clouds,dailyrainin,SolarRadiationWatts/m^2,SoftwareType,DateUTC
2013-02-19 00:01:00,72.0,60.0,30.04,East,85,6.0,8.0,66,0.00,,,-99.99,0.000000,,2013-02-19 10:01:00,
2013-02-19 00:11:00,72.0,60.0,30.04,East,85,6.0,8.0,66,0.00,,,-99.99,0.000000,,2013-02-19 10:11:00,
2013-02-19 00:42:00,70.0,62.0,30.03,NE,34,2.0,9.0,75,0.00,,,0.00,0.000000,,2013-02-19 10:42:00,
2013-02-19 00:52:00,70.0,62.0,30.03,NE,34,2.0,9.0,75,0.00,,,0.00,0.000000,,2013-02-19 10:52:00,
2013-02-19 01:01:00,70.0,62.0,30.03,NE,34,2.0,9.0,75,0.00,,,0.00,0.000000,,2013-02-19 11:01:00,
2013-02-19 01:11:00,70.0,62.0,30.03,NE,34,2.0,9.0,75,0.00,,,0.00,0.000000,,2013-02-19 11:11:00,
2013-02-19 01:42:00,70.0,60.0,30.02,ENE,73,4.0,6.0,70,0.00,,,0.00,0.000000,,2013-02-19 11:42:00,
2013-02-19 01:52:00,70.0,60.0,30.02,ENE,73,4.0,6.0,70,0.00,,,0.00,0.000000,,2013-02-19 11:52:00,
2013-02-19 02:01:00,70.0,60.0,30.02,ENE,73,4.0,6.0,70,0.00,,,0.00,0.000000,,2013-02-19 12:01:00,
2013-02-19 02:12:00,70.0,60.0,30.02,ENE,73,4.0,6.0,70,0.00,,,0.00,0.000000,,2013-02-19 12:12:00,
2013-02-19 02:42:00,68.0,61.0,30.01,ENE,60,3.0,6.0,79,0.00,,,0.00,0.000000,,2013-02-19 12:42:00,
2013-02-19 02:52:00,68.0,61.0,30.01,ENE,60,3.0,6.0,79,0.00,,,0.00,0.000000,,2013-02-19 12:52:00,
2013-02-19 03:01:00,68.0,61.0,30.01,ENE,60,3.0,6.0,79,0.00,,,0.00,0.000000,,2013-02-19 13:01:00,
2013-02-19 03:11:00,68.0,61.0,30.01,ENE,60,3.0,6.0,79,0.00,,,0.00,0.000000,,2013-02-19 13:11:00,
2013-02-19 03:42:00,69.0,60.0,30.01,NE,51,5.0,6.0,72,0.00,,,0.00,0.000000,,2013-02-19 13:42:00,
2013-02-19 03:52:00,69.0,60.0,30.01,NE,51,5.0,6.0,72,0.00,,,0.00,0.000000,,2013-02-19 13:52:00,
2013-02-19 04:01:00,69.0,60.0,30.01,NE,51,5.0,6.0,72,0.00,,,0.00,0.000000,,2013-02-19 14:01:00,
2013-02-19 04:11:00,69.0,60.0,30.01,NE,51,5.0,6.0,72,0.00,,,0.00,0.000000,,2013-02-19 14:11:00,
2013-02-19 04:42:00,68.0,59.0,30.00,ENE,64,5.0,8.0,73,0.00,,,0.00,0.000000,,2013-02-19 14:42:00,
2013-02-19 04:52:00,68.0,59.0,30.00,ENE,64,5.0,8.0,73,0.00,,,0.00,0.000000,,2013-02-19 14:52:00,
2013-02-19 05:01:00,68.0,59.0,30.00,ENE,64,5.0,8.0,73,0.00,,,0.00,0.000000,,2013-02-19 15:01:00,
2013-02-19 05:11:00,68.0,59.0,30.00,ENE,64,5.0,8.0,73,0.00,,,0.00,0.000000,,2013-02-19 15:11:00,
2013-02-19 05:42:00,67.0,57.0,30.01,ENE,58,6.0,10.0,71,0.00,,,0.00,0.000000,,2013-02-19 15:42:00,
2013-02-19 05:52:00,67.0,57.0,30.01,ENE,58,6.0,10.0,71,0.00,,,0.00,0.000000,,2013-02-19 15:52:00,
2013-02-19 06:01:00,67.0,57.0,30.01,ENE,58,6.0,10.0,71,0.00,,,0.00,0.000000,,2013-02-19 16:01:00,
2013-02-19 06:11:00,67.0,57.0,30.01,ENE,58,6.0,10.0,71,0.00,,,0.00,0.000000,,2013-02-19 16:11:00,
2013-02-19 06:42:00,67.0,57.0,30.03,ENE,76,5.0,7.0,71,0.00,,,0.00,0.000000,,2013-02-19 16:42:00,
2013-02-19 06:52:00,67.0,57.0,30.03,ENE,76,5.0,7.0,71,0.00,,,0.00,0.000000,,2013-02-19 16:52:00,
2013-02-19 07:01:00,67.0,57.0,30.03,ENE,76,5.0,7.0,71,0.00,,,0.00,0.000000,,2013-02-19 17:01:00,
2013-02-19 07:11:00,67.0,57.0,30.03,ENE,76,5.0,7.0,71,0.00,,,0.00,0.000000,,2013-02-19 17:11:00,
2013-02-19 07:42:00,68.0,57.0,30.04,ENE,70,6.0,9.0,68,0.00,,,0.00,6.000000,,2013-02-19 17:42:00,
2013-02-19 07:52:00,68.0,57.0,30.04,ENE,70,6.0,9.0,68,0.00,,,0.00,6.000000,,2013-02-19 17:52:00,
2013-02-19 08:01:00,68.0,57.0,30.04,ENE,70,6.0,9.0,68,0.00,,,0.00,6.000000,,2013-02-19 18:01:00,
2013-02-19 08:11:00,68.0,57.0,30.04,ENE,70,6.0,9.0,68,0.00,,,0.00,6.000000,,2013-02-19 18:11:00,
2013-02-19 08:42:00,75.0,58.0,30.05,NE,44,3.0,8.0,56,0.00,,,0.00,127.000000,,2013-02-19 18:42:00,
2013-02-19 08:52:00,75.0,58.0,30.05,NE,44,3.0,8.0,56,0.00,,,0.00,127.000000,,2013-02-19 18:52:00,
2013-02-19 09:01:00,75.0,58.0,30.05,NE,44,3.0,8.0,56,0.00,,,0.00,127.000000,,2013-02-19 19:01:00,
2013-02-19 09:11:00,75.0,58.0,30.05,NE,44,3.0,8.0,56,0.00,,,0.00,127.000000,,2013-02-19 19:11:00,
2013-02-19 09:42:00,78.0,62.0,30.07,West,263,5.0,8.0,59,0.00,,,-99.99,363.000000,,2013-02-19 19:42:00,
2013-02-19 09:52:00,78.0,62.0,30.07,West,263,5.0,8.0,59,0.00,,,-99.99,363.000000,,2013-02-19 19:52:00,
2013-02-19 10:01:00,78.0,62.0,30.07,West,263,5.0,8.0,59,0.00,,,-99.99,363.000000,,2013-02-19 20:01:00,
2013-02-19 10:11:00,78.0,62.0,30.07,West,263,5.0,8.0,59,0.00,,,-99.99,363.000000,,2013-02-19 20:11:00,
2013-02-19 10:42:00,80.0,62.0,30.07,SW,236,4.0,8.0,55,0.00,,,0.00,613.000000,,2013-02-19 20:42:00,
2013-02-19 10:52:00,80.0,62.0,30.07,SW,236,4.0,8.0,55,0.00,,,0.00,613.000000,,2013-02-19 20:52:00,
2013-02-19 11:01:00,80.0,62.0,30.07,SW,236,4.0,8.0,55,0.00,,,0.00,613.000000,,2013-02-19 21:01:00,
2013-02-19 11:11:00,80.0,62.0,30.07,SW,236,4.0,8.0,55,0.00,,,0.00,613.000000,,2013-02-19 21:11:00,
2013-02-19 11:42:00,80.0,62.0,30.06,West,272,7.0,10.0,55,0.00,,,0.00,858.000000,,2013-02-19 21:42:00,
2013-02-19 11:52:00,80.0,62.0,30.06,West,272,7.0,10.0,55,0.00,,,0.00,858.000000,,2013-02-19 21:52:00,
2013-02-19 12:01:00,80.0,62.0,30.06,West,272,7.0,10.0,55,0.00,,,0.00,858.000000,,2013-02-19 22:01:00,
2013-02-19 12:11:00,80.0,62.0,30.06,West,272,7.0,10.0,55,0.00,,,0.00,858.000000,,2013-02-19 22:11:00,
2013-02-19 12:42:00,81.0,62.0,30.02,WSW,256,9.0,12.0,52,0.00,,,0.00,982.000000,,2013-02-19 22:42:00,
2013-02-19 12:52:00,81.0,62.0,30.02,WSW,256,9.0,12.0,52,0.00,,,0.00,982.000000,,2013-02-19 22:52:00,
2013-02-19 13:01:00,81.0,62.0,30.02,WSW,256,9.0,12.0,52,0.00,,,0.00,982.000000,,2013-02-19 23:01:00,
2013-02-19 13:11:00,81.0,62.0,30.02,WSW,256,9.0,12.0,52,0.00,,,0.00,982.000000,,2013-02-19 23:11:00,
2013-02-19 13:42:00,81.0,62.0,30.00,WSW,256,10.0,13.0,53,0.00,,,0.00,1039.000000,,2013-02-19 23:42:00,
2013-02-19 13:52:00,81.0,62.0,30.00,WSW,256,10.0,13.0,53,0.00,,,0.00,1039.000000,,2013-02-19 23:52:00,
2013-02-19 14:01:00,81.0,62.0,30.00,WSW,256,10.0,13.0,53,0.00,,,0.00,1039.000000,,2013-02-20 00:01:00,
2013-02-19 14:11:00,81.0,62.0,30.00,WSW,256,10.0,13.0,53,0.00,,,0.00,1039.000000,,2013-02-20 00:11:00,
2013-02-19 14:42:00,81.0,62.0,29.98,WSW,242,11.0,14.0,53,0.00,,,0.00,1004.000000,,2013-02-20 00:42:00,
2013-02-19 14:52:00,81.0,62.0,29.98,WSW,242,11.0,14.0,53,0.00,,,0.00,1004.000000,,2013-02-20 00:52:00,
2013-02-19 15:02:00,81.0,62.0,29.98,WSW,242,11.0,14.0,53,0.00,,,0.00,1004.000000,,2013-02-20 01:02:00,
2013-02-19 15:11:00,81.0,62.0,29.98,WSW,242,11.0,14.0,53,0.00,,,0.00,1004.000000,,2013-02-20 01:11:00,
2013-02-19 15:42:00,79.0,62.0,29.96,SW,226,9.0,14.0,56,0.00,,,0.00,583.000000,,2013-02-20 01:42:00,
2013-02-19 15:52:00,79.0,62.0,29.96,SW,226,9.0,14.0,56,0.00,,,0.00,583.000000,,2013-02-20 01:52:00,
2013-02-19 16:01:00,79.0,62.0,29.96,SW,226,9.0,14.0,56,0.00,,,0.00,583.000000,,2013-02-20 02:01:00,
2013-02-19 16:11:00,79.0,62.0,29.96,SW,226,9.0,14.0,56,0.00,,,0.00,583.000000,,2013-02-20 02:11:00,
2013-02-19 16:42:00,80.0,62.0,29.96,SSE,160,8.0,12.0,55,0.00,,,0.00,418.000000,,2013-02-20 02:42:00,
2013-02-19 16:52:00,80.0,62.0,29.96,SSE,160,8.0,12.0,55,0.00,,,0.00,418.000000,,2013-02-20 02:52:00,
2013-02-19 17:01:00,80.0,62.0,29.96,SSE,160,8.0,12.0,55,0.00,,,0.00,418.000000,,2013-02-20 03:01:00,
2013-02-19 17:12:00,80.0,62.0,29.96,SSE,160,8.0,12.0,55,0.00,,,0.00,418.000000,,2013-02-20 03:12:00,
2013-02-19 17:42:00,79.0,61.0,29.97,SSE,160,8.0,11.0,54,0.00,,,0.00,255.000000,,2013-02-20 03:42:00,
2013-02-19 17:52:00,79.0,61.0,29.97,SSE,160,8.0,11.0,54,0.00,,,0.00,255.000000,,2013-02-20 03:52:00,
2013-02-19 18:01:00,79.0,61.0,29.97,SSE,160,8.0,11.0,54,0.00,,,0.00,255.000000,,2013-02-20 04:01:00,
2013-02-19 18:11:00,79.0,61.0,29.97,SSE,160,8.0,11.0,54,0.00,,,0.00,255.000000,,2013-02-20 04:11:00,
2013-02-19 18:42:00,77.0,62.0,29.99,SSE,159,6.0,12.0,60,0.00,,,-99.99,140.000000,,2013-02-20 04:42:00,
2013-02-19 18:52:00,77.0,62.0,29.99,SSE,159,6.0,12.0,60,0.00,,,-99.99,140.000000,,2013-02-20 04:52:00,
2013-02-19 19:02:00,77.0,62.0,29.99,SSE,159,6.0,12.0,60,0.00,,,-99.99,140.000000,,2013-02-20 05:02:00,
2013-02-19 19:12:00,77.0,62.0,29.99,SSE,159,6.0,12.0,60,0.00,,,-99.99,140.000000,,2013-02-20 05:12:00,
2013-02-19 19:43:00,75.0,62.0,30.01,SSE,154,6.0,10.0,65,0.00,,,0.00,4.000000,,2013-02-20 05:43:00,
2013-02-19 19:52:00,75.0,62.0,30.01,SSE,154,6.0,10.0,65,0.00,,,0.00,4.000000,,2013-02-20 05:52:00,
2013-02-19 20:01:00,75.0,62.0,30.01,SSE,154,6.0,10.0,65,0.00,,,0.00,4.000000,,2013-02-20 06:01:00,
2013-02-19 20:11:00,75.0,62.0,30.01,SSE,154,6.0,10.0,65,0.00,,,0.00,4.000000,,2013-02-20 06:11:00,
2013-02-19 20:42:00,75.0,63.0,30.03,SSE,148,6.0,11.0,67,0.00,,,0.00,0.000000,,2013-02-20 06:42:00,
2013-02-19 20:52:00,75.0,63.0,30.03,SSE,148,6.0,11.0,67,0.00,,,0.00,0.000000,,2013-02-20 06:52:00,
2013-02-19 21:01:00,75.0,63.0,30.03,SSE,148,6.0,11.0,67,0.00,,,0.00,0.000000,,2013-02-20 07:01:00,
2013-02-19 21:11:00,75.0,63.0,30.03,SSE,148,6.0,11.0,67,0.00,,,0.00,0.000000,,2013-02-20 07:11:00,
2013-02-19 21:42:00,73.0,63.0,30.04,ESE,120,4.0,9.0,70,0.00,,,0.00,0.000000,,2013-02-20 07:42:00,
2013-02-19 21:52:00,73.0,63.0,30.04,ESE,120,4.0,9.0,70,0.00,,,0.00,0.000000,,2013-02-20 07:52:00,
2013-02-19 22:01:00,73.0,63.0,30.04,ESE,120,4.0,9.0,70,0.00,,,0.00,0.000000,,2013-02-20 08:01:00,
2013-02-19 22:11:00,73.0,63.0,30.04,ESE,120,4.0,9.0,70,0.00,,,0.00,0.000000,,2013-02-20 08:11:00,
2013-02-19 22:42:00,71.0,62.0,30.04,ESE,102,3.0,6.0,73,0.00,,,-99.99,0.000000,,2013-02-20 08:42:00,
2013-02-19 22:52:00,71.0,62.0,30.04,ESE,102,3.0,6.0,73,0.00,,,-99.99,0.000000,,2013-02-20 08:52:00,
2013-02-19 23:01:00,71.0,62.0,30.04,ESE,102,3.0,6.0,73,0.00,,,-99.99,0.000000,,2013-02-20 09:01:00,
2013-02-19 23:11:00,71.0,62.0,30.04,ESE,102,3.0,6.0,73,0.00,,,-99.99,0.000000,,2013-02-20 09:11:00,
2013-02-19 23:42:00,71.0,59.0,30.05,ENE,78,5.0,6.0,66,0.00,,,0.00,0.000000,,2013-02-20 09:42:00,
2013-02-19 23:52:00,71.0,59.0,30.05,ENE,78,5.0,6.0,66,0.00,,,0.00,0.000000,,2013-02-20 09:52:00,